Wind_Speed
8 8 8 8 7 6 5 4 4 3 2 2 1 1 2 4 5 6 7 8 9 10 10 11 11 12 13 13 13 14 14 15 15 15 16 16 16 17 17 18 18 19 19 19 20 20 21 21 21
7 8 8 7 7 6 5 4 4 3 3 2 2 1 2 3 4 5 6 7 8 9 10 11 11 12 13 13 14 14 14 15 15 16 16 17 17 18 18 19 19 20 20 21 21 21 22 22 22
7 7 7 6 6 6 5 4 4 3 2 2 2 2 3 4 4 5 6 7 8 9 10 11 12 12 13 14 14 15 15 15 16 16 17 17 18 18 19 20 20 21 21 22 22 22 23 23 24
6 6 6 6 5 6 5 5 4 3 2 2 3 3 4 5 6 7 7 8 8 9 10 11 12 13 14 15 16 16 16 17 17 17 18 18 19 19 20 21 21 22 22 22 23 23 24 24 25
6 6 6 5 5 5 5 5 5 4 3 3 4 4 5 6 7 8 8 9 9 10 11 12 13 14 15 15 16 17 17 18 18 18 19 20 20 21 21 22 22 22 23 23 23 24 24 25 25
7 7 6 6 6 6 6 6 6 5 5 5 5 6 7 7 8 9 10 10 10 11 12 13 14 15 15 16 16 17 18 18 19 19 20 21 21 22 22 22 22 23 23 24 25 25 25 26 26
8 8 7 7 7 7 7 7 7 7 6 7 7 8 8 9 10 11 11 12 12 12 13 13 14 15 16 16 17 17 18 18 19 20 20 21 22 22 23 23 24 24 25 25 26 26 27 27 28
9 9 8 8 9 9 9 9 9 9 9 9 9 9 9 10 11 12 13 13 13 13 14 14 15 16 16 17 17 18 18 19 19 20 21 22 23 23 24 24 25 26 26 27 27 28 28 29 29
11 11 10 10 10 10 10 11 11 11 11 11 11 11 11 11 12 13 14 14 14 14 15 15 16 16 17 18 18 18 19 19 20 21 22 23 23 24 25 25 26 27 27 28 28 29 29 30 30
12 12 12 11 12 12 12 12 12 12 12 12 12 12 13 13 13 14 15 15 15 16 16 16 17 17 17 18 18 19 19 20 20 21 22 23 24 24 25 26 27 27 28 29 29 30 30 31 31
14 14 14 13 13 14 14 14 14 14 13 13 14 14 14 14 14 15 16 16 17 17 17 17 18 18 18 18 19 19 20 20 21 21 22 23 23 24 25 26 27 28 29 30 30 31 31 32 32
16 16 16 15 15 15 16 16 16 15 15 16 15 15 16 16 16 16 17 17 17 18 18 18 18 18 19 19 20 20 21 21 22 22 23 24 25 25 26 27 28 28 29 30 31 32 32 33 33
18 18 17 17 17 16 17 17 17 17 17 17 17 17 18 18 17 18 18 18 18 19 19 19 19 19 19 20 20 20 21 22 22 23 24 25 26 26 27 28 28 29 29 30 31 32 32 33 34
19 19 19 18 18 18 18 18 18 18 19 18 18 18 19 19 19 19 19 19 19 19 19 20 20 20 20 20 20 21 22 23 23 24 25 25 26 27 28 29 29 30 30 31 32 32 33 34 35
20 20 20 20 19 19 20 19 19 19 19 19 20 20 21 21 20 20 20 20 20 20 20 20 20 21 21 21 22 22 23 24 24 25 25 26 27 28 29 29 30 31 32 33 33 34 35 36 36
21 21 20 21 21 21 20 20 20 20 20 21 21 22 22 22 22 21 21 21 21 21 21 21 21 21 22 22 23 23 24 24 25 26 26 27 28 29 30 31 31 32 33 34 35 36 37 38 38
22 21 21 22 22 21 21 20 22 22 21 22 23 23 23 23 23 22 22 22 22 22 22 22 22 22 22 23 24 24 25 26 26 27 27 28 29 30 31 32 33 34 35 36 37 38 38 39 40
23 22 22 22 23 22 22 21 23 23 23 23 24 23 23 23 23 23 23 23 23 23 23 23 23 23 24 24 25 25 26 27 28 28 29 30 31 32 32 33 34 35 36 38 39 40 41 42 42
24 23 23 24 24 24 23 22 23 24 23 24 24 24 24 24 24 24 24 24 24 24 24 24 24 25 25 26 26 27 27 28 29 30 31 32 33 33 34 35 37 38 39 40 42 42 43 44 45
25 25 25 26 26 25 24 22 24 25 24 25 25 25 25 25 24 24 25 25 25 26 26 26 26 26 27 27 27 28 29 30 31 32 33 34 34 35 36 38 39 40 42 43 44 45 46 47 48
26 26 26 27 27 27 26 22 24 26 26 25 26 26 25 25 25 25 26 26 27 27 27 27 27 28 28 29 29 30 30 32 33 34 35 36 37 38 39 40 42 43 44 45 46 47 48 49 50
27 28 28 28 28 27 28 25 21 25 26 26 26 26 25 25 26 26 27 27 28 28 28 28 29 29 29 30 31 32 32 33 34 36 36 37 38 40 41 42 44 45 46 47 48 50 51 51 52
29 29 30 30 30 29 27 29 20 24 26 26 26 26 26 26 26 27 28 28 28 29 29 29 30 30 31 32 33 34 35 35 36 37 38 39 40 42 43 44 46 47 48 49 50 51 52 54 55
30 31 31 31 31 30 27 29 24 24 25 26 26 26 26 26 27 28 28 29 29 30 30 31 31 32 33 34 35 36 37 37 38 39 40 41 42 44 45 46 48 49 50 51 52 53 55 56 57
30 31 32 32 31 30 28 28 25 25 25 26 26 26 27 27 28 28 29 30 30 31 31 32 33 34 35 36 37 38 39 40 40 41 42 43 45 46 47 48 49 50 52 53 54 55 57 58 59
30 31 32 34 33 31 29 28 25 25 26 26 27 27 28 28 29 29 30 31 32 32 33 34 35 36 37 38 39 40 41 42 42 43 45 46 47 48 49 50 51 52 54 55 56 57 59 60 61
30 30 31 34 35 34 31 28 24 25 27 27 28 28 29 29 30 30 31 32 33 34 35 36 37 38 39 40 41 42 43 44 45 46 47 48 49 50 51 52 53 55 56 57 58 59 61 62 64
31 31 31 33 36 35 32 28 26 25 27 28 29 29 30 30 31 31 32 33 34 35 37 38 39 39 40 41 42 43 44 45 46 47 48 50 51 52 53 54 55 56 58 59 61 62 64 65 66
31 32 33 35 36 37 35 29 26 26 27 28 30 30 30 31 31 32 33 35 36 37 38 39 40 41 42 43 44 45 46 47 48 49 50 52 53 54 55 56 58 59 61 62 63 65 66 67 68
32 32 33 35 36 37 37 31 26 27 29 31 32 32 31 32 32 33 35 36 37 38 39 40 41 42 43 44 45 46 48 49 50 51 52 54 55 56 57 59 60 62 63 65 66 67 68 69 70
Wind_Direction
17 21 24 28 33 39 42 44 43 41 40 39 7 290 274 268 266 264 264 262 261 263 266 268 269 270 270 270 271 271 272 273 274 274 274 275 275 275 274 274 273 273 273 273 273 272 272 271 270
11 17 18 22 28 32 31 36 41 40 40 41 33 359 311 296 289 279 274 271 270 269 270 272 274 274 274 273 273 274 274 275 276 277 277 277 277 276 275 275 274 274 274 273 273 273 273 272 271
360 5 10 13 16 19 17 21 29 29 32 29 17 353 327 315 305 296 289 283 279 277 276 277 278 278 277 276 276 277 277 278 279 279 279 278 278 277 276 276 276 276 275 275 274 273 273 272 272
345 348 352 356 359 4 4 2 3 2 4 358 344 330 319 313 309 303 298 293 289 284 282 282 281 280 280 280 279 278 279 280 280 280 280 280 279 279 279 278 278 277 277 276 275 274 273 273 273
327 329 334 337 341 343 344 341 339 336 334 328 325 321 318 312 307 304 300 296 293 289 287 286 285 285 284 283 282 281 280 281 281 281 281 281 281 281 281 281 280 279 278 277 277 276 275 274 275
313 313 315 316 319 320 320 321 319 316 316 312 312 313 312 308 304 301 299 296 294 293 291 289 287 286 286 286 285 284 283 283 283 282 282 282 282 282 282 281 281 280 279 278 278 277 277 277 276
301 303 303 303 301 302 303 306 305 304 304 304 306 307 309 306 303 300 298 298 297 295 294 292 290 288 287 287 287 286 285 285 285 284 284 284 284 284 283 283 282 281 281 281 280 279 278 278 278
291 294 294 294 293 294 296 297 297 298 299 301 302 304 304 304 303 301 299 298 298 297 296 295 293 291 289 288 288 288 288 288 287 287 287 286 285 285 285 285 284 284 283 283 282 281 280 279 279
283 286 288 287 288 289 291 291 292 293 295 296 298 299 298 299 300 299 298 298 298 298 298 297 296 294 292 290 290 289 289 289 289 289 288 288 287 287 286 286 286 285 284 284 283 282 281 281 280
278 282 284 283 283 285 287 288 289 289 291 293 295 297 297 297 298 297 297 297 298 298 298 297 297 296 295 293 292 292 291 291 291 290 290 289 288 287 287 286 286 285 284 284 283 283 282 282 281
274 278 280 282 281 281 283 285 286 287 288 291 293 295 296 297 297 296 295 296 297 297 297 296 296 296 296 295 294 293 292 292 291 291 291 290 290 289 288 288 287 286 285 285 284 284 283 282 282
270 273 277 280 282 280 281 282 283 284 285 289 291 292 294 296 296 295 294 295 296 296 297 297 296 296 295 294 294 292 292 292 292 292 291 291 291 290 290 289 289 288 288 287 286 285 285 284 283
268 271 275 278 281 281 280 280 281 282 284 287 289 290 292 294 294 294 294 295 296 296 296 296 296 296 295 295 294 294 293 293 293 293 293 293 293 292 292 291 291 290 289 288 288 287 286 286 285
267 271 274 276 278 278 279 279 279 280 283 284 286 289 291 293 293 293 293 294 295 295 296 296 296 295 295 295 295 294 294 294 293 293 294 293 293 293 293 293 292 292 291 290 289 288 288 287 287
265 269 272 274 275 276 276 277 277 279 281 282 285 288 290 291 291 291 292 293 294 295 296 296 296 295 295 294 294 294 294 295 295 295 295 294 294 294 294 294 293 292 292 291 290 290 289 288 288
264 266 270 272 272 273 274 276 277 278 279 280 283 286 289 290 290 289 290 292 293 294 295 295 295 295 295 295 295 295 295 295 295 294 294 294 294 294 294 294 293 293 292 291 291 290 290 289 288
263 265 268 270 271 272 273 275 278 279 279 280 282 284 287 288 287 288 289 291 292 293 294 294 294 294 295 296 296 296 296 296 296 295 295 295 294 294 294 294 293 292 292 291 291 290 289 289 288
263 264 267 269 270 271 273 274 276 277 278 280 281 283 285 286 286 287 288 289 290 292 293 293 292 293 294 294 295 295 295 295 295 295 295 295 295 295 294 294 293 292 292 291 291 290 290 289 288
262 263 266 268 270 271 273 274 275 276 277 278 280 281 283 284 285 286 287 288 289 291 292 292 291 291 292 293 294 294 294 294 295 295 295 295 295 295 294 294 294 293 293 293 292 292 291 291 290
262 264 266 268 271 272 273 274 274 275 276 276 278 280 281 282 283 284 285 287 288 289 290 290 291 291 292 293 293 294 295 295 296 296 296 296 295 295 295 295 295 294 294 294 294 293 292 292 291
264 265 266 268 270 273 274 272 273 273 275 275 277 279 280 281 281 283 285 286 288 289 289 290 291 292 292 293 294 294 295 295 296 297 297 297 296 296 296 296 295 295 295 295 295 294 293 293 292
263 266 267 268 270 273 276 275 269 273 275 276 276 278 279 280 281 282 284 286 287 288 289 290 291 291 292 293 294 295 295 296 297 297 297 297 297 297 297 297 297 297 297 296 296 296 295 294 294
263 266 268 270 272 274 277 278 272 273 275 276 276 276 277 279 281 282 284 285 287 288 289 289 290 292 293 294 294 295 296 297 298 298 298 298 298 298 299 299 299 299 298 297 297 296 296 296 295
264 265 268 270 273 275 276 278 278 277 277 277 276 276 278 279 281 282 284 285 286 287 287 289 291 292 294 294 295 296 297 298 298 299 299 299 299 299 300 300 300 299 299 298 298 298 297 297 297
263 266 270 272 274 276 276 277 281 280 278 277 276 277 278 279 280 282 283 284 285 286 287 289 291 293 294 295 295 296 297 298 298 299 299 300 300 300 300 301 301 300 300 299 299 299 299 298 298
262 266 270 275 277 277 277 278 282 282 280 278 277 277 278 279 280 282 283 284 285 286 288 289 291 293 294 295 296 297 298 299 299 300 300 300 300 301 301 301 301 301 300 300 300 300 299 299 299
262 266 270 274 276 278 278 280 281 282 280 279 279 278 279 280 281 283 283 284 286 287 288 290 292 293 294 296 297 298 299 300 300 300 300 301 301 301 302 302 302 302 302 301 301 301 301 300 300
261 265 268 272 276 279 280 281 284 283 281 279 279 279 280 281 282 283 284 285 286 287 289 291 292 294 295 296 297 298 299 300 300 301 301 301 302 302 303 303 303 303 303 302 302 302 302 301 301
261 264 268 270 274 279 281 282 284 284 281 280 279 280 281 282 282 283 284 285 287 288 290 291 293 294 295 297 298 299 300 300 301 301 301 302 302 303 303 303 303 303 303 303 303 303 302 302 302
261 264 267 270 274 276 279 282 283 282 281 280 280 280 281 282 283 284 285 286 288 289 291 292 294 295 296 297 298 299 300 300 301 301 302 303 303 304 304 304 304 304 304 304 303 303 303 302 302
Height
5868 5868 5868 5868 5868 5867 5866 5867 5866 5866 5866 5866 5866 5866 5866 5866 5867 5870 5867 5866 5867 5867 5867 5867 5866 5866 5866 5866 5866 5866 5865 5865 5865 5864 5864 5863 5863 5863 5863 5862 5863 5862 5862 5862 5862 5862 5862 5862 5862
5869 5869 5870 5869 5868 5868 5868 5867 5866 5866 5866 5866 5865 5865 5865 5865 5865 5866 5865 5865 5865 5865 5865 5865 5864 5864 5864 5864 5864 5863 5863 5862 5862 5861 5861 5860 5860 5860 5860 5859 5859 5859 5859 5859 5859 5858 5858 5858 5858
5869 5869 5870 5869 5868 5868 5868 5867 5867 5867 5866 5866 5865 5865 5865 5865 5864 5864 5864 5864 5864 5863 5863 5863 5863 5862 5862 5861 5861 5861 5860 5859 5859 5858 5858 5857 5857 5857 5856 5856 5856 5855 5855 5855 5855 5854 5854 5854 5854
5870 5870 5870 5870 5869 5868 5868 5868 5867 5867 5866 5866 5865 5865 5864 5864 5864 5863 5863 5862 5862 5862 5861 5861 5861 5860 5859 5859 5858 5858 5857 5857 5856 5855 5855 5854 5854 5853 5853 5852 5852 5852 5851 5851 5851 5850 5850 5850 5850
5869 5870 5870 5869 5869 5868 5868 5868 5867 5867 5866 5866 5865 5864 5864 5863 5862 5862 5861 5861 5860 5860 5859 5859 5858 5858 5857 5856 5856 5855 5854 5853 5853 5852 5851 5851 5850 5850 5849 5849 5848 5848 5847 5847 5846 5846 5846 5845 5845
5869 5869 5869 5869 5868 5868 5867 5867 5867 5867 5866 5865 5864 5864 5863 5862 5861 5861 5860 5859 5859 5858 5857 5857 5856 5855 5854 5853 5853 5852 5851 5850 5849 5849 5848 5847 5846 5846 5845 5845 5844 5844 5843 5843 5842 5842 5841 5841 5841
5869 5868 5868 5868 5867 5867 5867 5866 5866 5866 5865 5865 5864 5863 5862 5861 5860 5859 5858 5857 5857 5856 5855 5854 5853 5852 5851 5850 5850 5849 5848 5847 5846 5845 5844 5843 5842 5842 5841 5840 5840 5839 5839 5838 5838 5837 5837 5836 5836
5866 5867 5866 5866 5866 5866 5866 5865 5865 5864 5864 5863 5863 5862 5861 5860 5859 5857 5856 5855 5855 5854 5853 5852 5851 5850 5848 5847 5846 5845 5844 5843 5842 5841 5840 5839 5838 5838 5837 5836 5835 5835 5834 5833 5833 5832 5832 5831 5831
5865 5866 5865 5865 5864 5864 5864 5863 5863 5862 5862 5861 5860 5860 5859 5858 5857 5855 5854 5853 5852 5851 5850 5849 5848 5847 5845 5844 5843 5842 5841 5840 5839 5837 5836 5835 5834 5833 5832 5831 5831 5830 5829 5828 5827 5827 5826 5825 5825
5862 5863 5862 5862 5862 5862 5862 5861 5861 5861 5860 5859 5858 5858 5857 5856 5855 5853 5852 5851 5850 5848 5847 5846 5845 5843 5842 5841 5839 5838 5837 5836 5835 5833 5832 5831 5830 5829 5828 5827 5826 5824 5824 5823 5822 5821 5820 5819 5818
5859 5860 5859 5859 5859 5859 5859 5859 5858 5858 5858 5857 5856 5855 5854 5853 5852 5851 5849 5848 5847 5845 5844 5843 5841 5840 5838 5837 5836 5834 5833 5832 5831 5829 5828 5826 5825 5824 5823 5821 5820 5819 5818 5817 5816 5815 5814 5813 5812
5856 5856 5856 5856 5856 5856 5856 5856 5856 5855 5855 5854 5853 5852 5852 5851 5849 5848 5846 5845 5843 5842 5841 5839 5838 5836 5835 5833 5832 5831 5829 5828 5826 5825 5823 5822 5820 5819 5818 5816 5815 5814 5812 5811 5810 5808 5807 5806 5805
5853 5853 5853 5853 5853 5853 5853 5853 5853 5852 5852 5851 5850 5849 5848 5847 5846 5845 5843 5842 5840 5839 5837 5835 5834 5832 5831 5829 5828 5826 5825 5823 5822 5820 5819 5817 5815 5814 5812 5811 5809 5808 5807 5805 5804 5802 5801 5800 5798
5850 5850 5850 5850 5850 5850 5849 5849 5849 5849 5848 5848 5847 5846 5845 5844 5843 5841 5840 5838 5837 5835 5833 5832 5830 5828 5827 5825 5824 5822 5820 5819 5817 5816 5814 5812 5810 5809 5807 5805 5804 5802 5800 5799 5797 5796 5794 5793 5791
5846 5846 5846 5846 5846 5846 5846 5846 5845 5845 5845 5844 5843 5842 5841 5840 5839 5838 5836 5835 5833 5831 5830 5828 5826 5824 5823 5821 5819 5818 5816 5814 5812 5811 5809 5807 5805 5803 5801 5800 5798 5796 5794 5792 5791 5789 5787 5785 5784
5841 5842 5843 5842 5842 5841 5843 5843 5842 5841 5840 5840 5839 5838 5837 5836 5835 5833 5832 5831 5829 5827 5825 5824 5822 5820 5818 5817 5815 5813 5811 5809 5807 5806 5804 5802 5800 5798 5796 5794 5792 5790 5787 5785 5784 5782 5780 5778 5776
5837 5838 5838 5838 5837 5837 5838 5839 5837 5837 5836 5835 5835 5834 5833 5831 5830 5829 5828 5826 5825 5823 5821 5819 5818 5816 5814 5812 5810 5808 5806 5804 5802 5800 5798 5796 5794 5792 5790 5788 5785 5783 5781 5778 5776 5774 5772 5770 5767
5833 5833 5833 5833 5832 5833 5833 5834 5833 5832 5832 5831 5830 5829 5828 5827 5826 5824 5823 5822 5820 5819 5817 5815 5813 5811 5809 5807 5805 5803 5801 5799 5797 5795 5793 5790 5788 5786 5783 5781 5778 5776 5773 5771 5768 5766 5763 5760 5758
5827 5828 5828 5828 5827 5828 5828 5829 5828 5827 5827 5826 5825 5824 5823 5822 5821 5820 5818 5817 5815 5814 5812 5810 5808 5807 5805 5802 5800 5798 5796 5794 5791 5789 5787 5784 5781 5779 5776 5773 5771 5768 5765 5762 5759 5756 5753 5750 5747
5822 5823 5823 5823 5822 5822 5823 5825 5824 5822 5822 5821 5820 5819 5818 5817 5816 5815 5813 5812 5810 5809 5807 5805 5803 5801 5799 5797 5795 5793 5790 5788 5785 5782 5780 5777 5774 5771 5768 5765 5762 5759 5756 5753 5749 5746 5743 5739 5735
5817 5818 5818 5818 5817 5817 5818 5820 5819 5817 5816 5816 5815 5814 5813 5812 5811 5810 5808 5807 5805 5804 5802 5800 5798 5796 5794 5792 5789 5787 5784 5781 5778 5776 5772 5769 5766 5763 5760 5757 5753 5750 5746 5743 5739 5735 5732 5728 5724
5812 5812 5812 5812 5811 5812 5812 5812 5816 5812 5811 5810 5809 5808 5808 5807 5806 5804 5803 5801 5800 5798 5796 5794 5792 5790 5788 5785 5783 5780 5777 5774 5771 5768 5765 5761 5758 5755 5751 5747 5744 5740 5736 5732 5728 5724 5720 5716 5712
5806 5806 5806 5806 5805 5806 5807 5805 5811 5808 5806 5805 5804 5803 5802 5801 5800 5799 5797 5796 5794 5792 5791 5788 5786 5784 5781 5779 5776 5773 5770 5767 5764 5760 5757 5753 5749 5746 5742 5738 5734 5729 5725 5721 5716 5712 5707 5703 5698
5800 5801 5800 5799 5799 5801 5802 5800 5803 5802 5801 5799 5798 5797 5796 5795 5794 5793 5791 5790 5788 5786 5784 5782 5780 5777 5775 5772 5769 5766 5763 5759 5756 5752 5748 5744 5740 5736 5732 5727 5723 5718 5714 5709 5704 5699 5694 5689 5684
5795 5795 5794 5793 5793 5795 5795 5794 5797 5796 5794 5793 5792 5791 5790 5789 5788 5787 5785 5784 5782 5780 5778 5775 5773 5770 5767 5764 5761 5758 5755 5751 5747 5743 5739 5735 5731 5726 5722 5717 5712 5707 5702 5697 5692 5687 5681 5675 5670
5789 5789 5789 5788 5787 5788 5788 5789 5792 5790 5788 5786 5786 5785 5784 5783 5782 5780 5779 5777 5775 5773 5771 5768 5765 5763 5760 5756 5753 5749 5746 5742 5738 5734 5730 5725 5721 5716 5711 5706 5701 5695 5690 5684 5679 5673 5667 5661 5655
5783 5783 5783 5781 5779 5780 5782 5784 5786 5784 5782 5780 5779 5778 5777 5776 5775 5773 5772 5770 5768 5765 5763 5760 5758 5755 5751 5748 5744 5741 5737 5733 5728 5724 5719 5715 5710 5705 5699 5694 5688 5683 5677 5671 5665 5659 5652 5646 5640
5777 5777 5777 5775 5773 5773 5775 5777 5779 5777 5775 5774 5772 5771 5770 5769 5768 5766 5764 5762 5760 5757 5755 5752 5749 5746 5743 5739 5735 5731 5727 5723 5718 5713 5709 5704 5698 5693 5687 5682 5676 5669 5663 5656 5650 5644 5637 5631 5623
5771 5771 5770 5769 5768 5767 5766 5773 5772 5770 5768 5767 5765 5764 5763 5762 5760 5758 5756 5754 5752 5749 5746 5743 5740 5737 5733 5730 5726 5721 5717 5712 5707 5702 5697 5692 5686 5680 5674 5668 5662 5655 5649 5642 5635 5628 5621 5614 5606
5763 5763 5763 5763 5762 5760 5759 5766 5766 5763 5760 5759 5757 5756 5755 5754 5752 5750 5748 5746 5743 5741 5738 5734 5731 5728 5724 5720 5716 5711 5706 5701 5696 5691 5685 5680 5674 5667 5661 5654 5648 5641 5634 5626 5619 5612 5604 5596 5589